Location: Newark
(43.6583°N, 1.6617°E)
Time: 15:15:41
(UTC+00:00)

Vanguard 1 Rocket - Pass Details

Date: 20 August 2019
Orbit: 650 x 4226 km, 34.3° (Epoch: 23 October)

Event Time Altitude Azimuth Distance (km) Brightness Sun altitude
Rises 09:59:09 0° 261° (W) 5,079 11.0 49.8°
Reaches altitude 10° 10:04:38 10° 238° (WSW) 4,775 11.1 50.6°
Maximum altitude 10:10:42 14° 212° (SSW) 5,129 11.5 51.4°
Drops below altitude 10° 10:18:20 10° 187° (S) 6,212 12.1 52.3°
Sets 10:28:23 0° 167° (SSE) 7,964 12.7 53.5°
